Weather History for KLOR - October, 2014

Change the Weather History Date:

Tuesday, October 14, 2014

  Actual Average (KDHN) Record (KDHN)
Temperature  
Mean Temperature 68 °F 68 °F  
Max Temperature 75 °F 80 °F 89 °F (1954)
Min Temperature 61 °F 56 °F 41 °F (2006)
Degree Days  
Heating Degree Days 0 1  
Month to date heating degree days 9  
Since 1 July heating degree days 11  
Cooling Degree Days 4 4  
Month to date cooling degree days 81  
Year to date cooling degree days 2309  
Growing Degree Days 18 (Base 50)    
Moisture  
Dew Point 66 °F    
Average Humidity 89    
Maximum Humidity 100    
Minimum Humidity 51    
Precipitation  
Precipitation 2.70 in 0.11 in 2.49 in (2014)
Month to date precipitation 1.48  
Year to date precipitation 43.46  
Sea Level Pressure  
Sea Level Pressure 29.86 in    
Wind  
Wind Speed 7 mph (SW)    
Max Wind Speed 17 mph    
Max Gust Speed 26 mph    
Visibility 6 miles    
Events Fog , Rain    
T = Trace of Precipitation, MM = Missing Value Source: NWS Daily Summary

Daily Weather History Graph

Daily Weather History Graph

Search for Another Location

Airport or City:

Trip Planner

Search our weather history database for the weather conditions in past years. The results will help you decide how hot, cold, wet, or windy it might be!

Date:

Astronomy

Oct. 14, 2014 Rise Set
Actual Time 6:45 AM CDT 6:12 PM CDT
Civil Twilight 6:20 AM CDT 6:36 PM CDT
Nautical Twilight 5:52 AM CDT 7:04 PM CDT
Astronomical Twilight 5:24 AM CDT 7:32 PM CDT
Moon 11:27 PM CDT (10/14) 12:34 PM CDT (10/14)
Length of Visible Light 12h 15m
Length of Day
11h 27m
Waning Gibbous, 61% of the Moon is Illuminated
Oct 14
Waning Gibbous
Oct 15
Last Quarter
Oct 23
New
Oct 30
First Quarter
Nov 6
Full

Hourly Weather History & Observations

Time (CDT) Temp. Dew Point Humidity Pressure Visibility Wind Dir Wind Speed Gust Speed Precip Events Conditions
12:00 AM 72.0 °F 71.1 °F 97% 29.89 in 1.0 mi SE 9.2 mph 19.6 mph 0.06 in Rain Heavy Rain
12:02 AM 72.0 °F 71.1 °F 97% 29.88 in 1.2 mi SE 6.9 mph 19.6 mph 0.09 in Rain Heavy Rain
12:05 AM 72.0 °F 70.0 °F 93% 29.89 in 2.0 mi South 8.1 mph 19.6 mph 0.09 in Rain Heavy Rain
12:14 AM 72.0 °F 70.0 °F 93% 29.89 in 10.0 mi South 4.6 mph - 0.09 in   Overcast
12:35 AM 71.1 °F 70.0 °F 96% 29.88 in 10.0 mi SE 4.6 mph - 0.09 in   Overcast
12:44 AM 71.1 °F 70.0 °F 96% 29.87 in 10.0 mi SE 5.8 mph - 0.09 in   Mostly Cloudy
12:53 AM 72.0 °F 70.0 °F 93% 29.87 in 10.0 mi SSE 4.6 mph - 0.09 in   Mostly Cloudy
1:29 AM 72.0 °F 71.1 °F 97% 29.87 in 10.0 mi SSE 5.8 mph - 0.01 in   Overcast
1:41 AM 72.0 °F 71.1 °F 97% 29.86 in 10.0 mi Variable 4.6 mph - 0.01 in   Overcast
1:50 AM 72.0 °F 71.1 °F 97% 29.86 in 2.0 mi SSW 4.6 mph - 0.08 in Rain Heavy Rain
1:57 AM 72.0 °F 71.1 °F 97% 29.92 in 2.0 mi West 16.1 mph 23.0 mph 0.04 in Rain Light Rain
2:03 AM 70.0 °F 69.1 °F 97% 29.93 in 0.8 mi West 17.3 mph 26.5 mph 0.34 in Rain Heavy Rain
2:10 AM 69.1 °F 68.0 °F 96% 29.92 in 0.5 mi WSW 11.5 mph 24.2 mph 0.59 in Fog , Rain Heavy Rain
2:18 AM 69.1 °F 68.0 °F 96% 29.90 in 1.0 mi WSW 6.9 mph 18.4 mph 0.75 in Rain Heavy Rain
2:35 AM 69.1 °F 68.0 °F 96% 29.88 in 2.0 mi SSW 3.5 mph - 0.87 in Rain Heavy Rain
2:51 AM 68.0 °F 66.2 °F 94% 29.87 in 1.5 mi Calm Calm - 0.98 in Rain Rain
2:53 AM 68.0 °F 66.9 °F 96% 29.86 in 2.0 mi Variable 3.5 mph - 0.98 in Rain Rain
3:01 AM 68.0 °F 66.9 °F 96% 29.85 in 7.0 mi Calm Calm - 0.01 in Rain Light Rain
3:40 AM 68.0 °F 66.9 °F 96% 29.83 in 10.0 mi South 4.6 mph - 0.02 in Rain Light Rain
3:53 AM 68.0 °F 66.9 °F 96% 29.84 in 10.0 mi South 4.6 mph - 0.02 in Rain Light Rain
3:56 AM 68.0 °F 66.9 °F 96% 29.85 in 10.0 mi South 4.6 mph - 0.00 in Rain Light Rain
4:10 AM 68.0 °F 66.9 °F 96% 29.84 in 10.0 mi South 5.8 mph - 0.00 in   Overcast
4:24 AM 68.0 °F 66.9 °F 96% 29.84 in 2.5 mi South 6.9 mph - 0.06 in Rain Light Rain
4:37 AM 68.0 °F 66.9 °F 96% 29.83 in 2.0 mi South 4.6 mph - 0.16 in Rain Rain
4:53 AM 68.0 °F 66.9 °F 96% 29.83 in 3.0 mi South 4.6 mph - 0.29 in Rain Rain
5:04 AM 68.0 °F 66.9 °F 96% 29.82 in 2.5 mi SE 4.6 mph - 0.05 in Rain Heavy Rain
5:08 AM 68.0 °F 66.9 °F 96% 29.81 in 3.0 mi East 4.6 mph - 0.06 in Rain Heavy Rain
5:12 AM 68.0 °F 66.9 °F 96% 29.82 in 4.0 mi Variable 3.5 mph - 0.07 in Rain Rain
5:40 AM 69.1 °F 68.0 °F 96% 29.81 in 5.0 mi Calm Calm - 0.15 in Rain Rain
5:53 AM 69.1 °F 68.0 °F 96% 29.81 in 5.0 mi North 3.5 mph - 0.17 in Rain Rain
6:01 AM 69.1 °F 68.0 °F 96% 29.84 in 2.5 mi NW 5.8 mph - 0.07 in Rain Heavy Rain
6:09 AM 69.1 °F 68.0 °F 96% 29.82 in 1.2 mi Variable 4.6 mph - 0.18 in Rain Heavy Rain
6:11 AM 69.1 °F 68.0 °F 96% 29.82 in 1.2 mi North 4.6 mph - 0.21 in Rain Heavy Rain
6:14 AM 69.1 °F 68.0 °F 96% 29.83 in 1.2 mi NW 11.5 mph - 0.24 in Rain Heavy Rain
6:18 AM 69.1 °F 68.0 °F 96% 29.84 in 1.2 mi NW 13.8 mph - 0.30 in Rain Heavy Rain
6:22 AM 69.1 °F 69.1 °F 100% 29.85 in 0.8 mi West 12.7 mph 20.7 mph 0.54 in Rain Heavy Rain
6:34 AM 70.0 °F 70.0 °F 100% 29.83 in 0.8 mi South 8.1 mph - 0.83 in Rain Heavy Rain
6:39 AM 70.0 °F 69.1 °F 97% 29.83 in 2.0 mi Variable 3.5 mph - 0.84 in Rain Rain
6:53 AM 70.0 °F 69.1 °F 97% 29.83 in 2.5 mi South 5.8 mph - 0.91 in Rain Heavy Rain
7:13 AM 70.0 °F 69.1 °F 97% 29.83 in 4.0 mi SE 4.6 mph - 0.09 in Rain Heavy Rain
7:53 AM 70.0 °F 69.1 °F 97% 29.82 in 10.0 mi SSE 3.5 mph - 0.14 in   Overcast
7:55 AM 70.0 °F 69.1 °F 97% 29.83 in 10.0 mi SSE 3.5 mph - N/A   Overcast
8:12 AM 70.0 °F 70.0 °F 100% 29.83 in 9.0 mi SSE 3.5 mph - 0.00 in Rain Light Rain
8:33 AM 71.1 °F 70.0 °F 96% 29.83 in 9.0 mi South 5.8 mph - 0.02 in Rain Light Rain
8:53 AM 72.0 °F 71.1 °F 97% 29.82 in 10.0 mi South 6.9 mph - 0.02 in Rain Light Rain
9:53 AM 73.0 °F 71.1 °F 93% 29.82 in 10.0 mi South 8.1 mph - 0.00 in   Overcast
10:11 AM 73.0 °F 71.1 °F 93% 29.84 in 10.0 mi West 13.8 mph 19.6 mph N/A   Overcast
10:25 AM 69.1 °F 68.0 °F 96% 29.84 in 8.0 mi West 11.5 mph - N/A   Overcast
10:53 AM 66.9 °F 64.9 °F 93% 29.85 in 8.0 mi West 11.5 mph - N/A   Overcast
11:15 AM 66.9 °F 63.0 °F 87% 29.87 in 10.0 mi West 13.8 mph 21.9 mph N/A   Overcast
11:53 AM 69.1 °F 62.1 °F 78% 29.86 in 10.0 mi West 12.7 mph - N/A   Overcast
12:03 PM 70.0 °F 62.1 °F 76% 29.86 in 10.0 mi WSW 11.5 mph - N/A   Mostly Cloudy
12:12 PM 71.1 °F 62.1 °F 73% 29.86 in 10.0 mi West 12.7 mph - N/A   Scattered Clouds
12:53 PM 73.0 °F 61.0 °F 66% 29.84 in 10.0 mi West 9.2 mph 16.1 mph N/A   Clear
1:53 PM 73.9 °F 57.9 °F 57% 29.83 in 10.0 mi WSW 11.5 mph - N/A   Partly Cloudy
2:53 PM 75.0 °F 57.0 °F 53% 29.83 in 10.0 mi West 8.1 mph - N/A   Clear
3:53 PM 75.0 °F 55.9 °F 51% 29.83 in 10.0 mi WSW 10.4 mph - N/A   Clear
4:53 PM 73.0 °F 55.0 °F 53% 29.84 in 10.0 mi West 8.1 mph - N/A   Partly Cloudy
5:53 PM 72.0 °F 55.9 °F 57% 29.84 in 10.0 mi West 4.6 mph - N/A   Clear
6:53 PM 66.9 °F 57.0 °F 70% 29.86 in 10.0 mi WNW 3.5 mph - N/A   Clear
7:53 PM 64.9 °F 57.0 °F 75% 29.89 in 10.0 mi NW 4.6 mph - N/A   Clear
8:53 PM 63.0 °F 55.9 °F 78% 29.93 in 10.0 mi NW 3.5 mph - N/A   Clear
9:53 PM 62.1 °F 55.0 °F 78% 29.94 in 10.0 mi WNW 4.6 mph - N/A   Clear
10:53 PM 62.1 °F 54.0 °F 75% 29.95 in 10.0 mi NW 5.8 mph - N/A   Clear
11:53 PM 61.0 °F 54.0 °F 78% 29.95 in 10.0 mi NW 4.6 mph - N/A   Partly Cloudy